Theta_e
325 325 325 325 324 325 326 326 326 326 325 325 324 323 323 323 321 321 320 319 317 318 318 317 317 317 316 316 317 316 316 315 315 315 315 316 316 316 316 316 317 318 319 318 319 319 320 323 323 322 323 324 325 327 328 329 330 331 332 333 333 333 333 334 334 334 333 333 334 334 334 334 334 334 335 336 338 338 337 337 337 337 337 335 334
327 325 324 325 325 326 327 327 327 326 325 325 324 324 323 323 322 321 321 321 318 317 319 318 317 318 317 316 316 316 315 315 315 314 315 316 316 315 315 315 316 317 317 318 319 318 319 323 324 323 322 323 323 324 325 326 327 330 332 332 333 333 333 333 332 332 333 333 333 334 335 335 334 334 335 336 337 338 337 336 336 335 336 336 336
330 326 324 325 326 326 327 327 326 326 325 325 325 324 324 323 323 322 321 321 320 317 319 320 317 317 316 316 317 316 315 315 314 314 315 316 316 316 315 316 317 317 317 317 318 318 319 323 324 323 323 323 323 323 324 324 326 329 331 332 333 333 333 333 332 332 332 333 333 334 337 339 338 334 334 336 336 337 338 338 336 334 335 336 336
330 328 326 325 326 326 326 326 326 325 325 325 325 324 323 323 323 323 321 321 321 318 318 320 319 317 316 316 317 316 314 314 314 314 315 315 316 316 315 317 318 318 317 317 317 317 320 324 324 323 323 323 323 323 324 326 327 329 330 331 332 333 333 333 332 331 332 333 333 333 333 337 342 337 332 334 335 336 338 338 337 335 335 336 336
329 329 328 325 325 325 326 326 325 325 325 325 325 324 324 324 323 323 322 321 322 320 318 319 320 318 316 316 317 316 314 314 315 315 316 315 316 316 316 318 319 319 318 318 317 317 321 324 323 323 323 323 323 324 325 327 328 330 330 331 332 332 332 332 332 331 331 332 332 333 333 336 342 336 331 334 334 334 336 337 337 335 335 335 336
327 328 327 326 325 325 325 326 326 325 325 325 325 325 326 325 323 323 323 322 322 322 319 318 319 318 317 316 316 315 314 314 315 315 316 316 316 316 316 318 319 320 320 319 319 319 321 323 323 322 322 323 323 324 325 326 328 329 330 331 331 332 332 331 331 331 331 331 331 332 334 335 337 332 333 337 335 333 335 336 337 335 335 336 335
328 327 326 325 325 326 325 326 326 325 325 325 325 326 326 325 324 323 323 323 323 322 320 319 319 318 318 317 316 315 314 314 314 315 315 315 316 316 316 318 319 321 321 321 321 320 320 322 322 322 322 323 323 323 324 325 326 328 328 330 330 331 332 331 331 332 331 330 330 331 331 332 333 332 335 337 336 336 335 334 337 336 335 336 335
330 330 328 325 325 326 326 326 326 325 325 325 325 326 326 326 324 323 323 323 323 322 321 320 319 319 319 317 316 315 315 314 314 315 315 315 315 315 316 318 320 320 321 321 321 321 321 322 322 321 321 322 322 322 323 324 325 327 327 328 329 330 331 331 332 332 331 330 331 331 331 332 332 332 334 334 335 337 337 335 335 336 336 336 335
330 330 328 326 325 326 326 326 326 326 325 325 326 326 326 326 325 324 324 323 323 322 321 320 320 319 319 318 317 316 315 314 314 314 314 313 314 314 315 318 319 320 320 321 321 321 322 323 323 322 321 322 322 322 322 323 324 326 326 326 327 329 330 330 331 331 331 331 330 330 330 331 331 332 333 333 334 336 338 338 335 334 337 336 336
330 328 325 325 326 326 326 326 327 327 326 325 325 326 326 326 325 325 324 323 323 322 321 321 321 320 319 318 317 316 315 314 314 314 313 313 314 314 315 318 319 320 320 320 321 321 321 322 322 322 322 322 322 322 322 322 323 324 324 323 326 328 329 330 330 331 331 330 330 330 330 329 330 331 332 333 334 334 336 337 333 333 336 335 334
332 328 325 325 326 326 327 327 328 328 327 327 326 326 326 326 325 325 324 323 323 322 322 322 321 320 320 319 318 317 316 315 314 313 313 313 314 315 316 318 319 319 319 320 320 321 320 320 320 320 321 322 322 321 321 322 322 323 323 322 323 326 328 329 330 330 330 330 330 331 330 330 329 330 331 332 333 334 334 334 332 332 333 333 333
333 331 328 326 326 326 327 327 327 327 327 328 327 326 326 326 325 325 324 324 323 323 323 323 321 320 320 319 318 317 316 315 314 313 314 314 315 316 317 318 319 318 318 319 319 320 320 319 319 319 319 320 321 321 321 322 322 321 321 321 321 323 326 328 328 329 330 330 330 330 331 331 330 330 331 331 333 333 333 333 332 332 333 333 333
333 334 332 328 326 326 327 327 327 326 326 328 327 326 326 326 326 325 325 324 324 324 323 323 322 321 320 319 319 317 316 316 315 314 314 314 315 316 317 318 318 318 318 318 319 320 319 318 319 318 318 318 318 318 319 321 322 321 320 321 321 320 322 325 326 327 328 329 330 330 330 331 331 331 330 331 332 332 332 333 333 333 333 333 333
332 334 334 329 325 326 327 327 327 327 327 328 327 326 326 326 326 325 325 325 324 324 324 323 322 322 321 320 319 318 316 317 315 314 314 314 315 316 317 318 318 318 318 319 319 319 318 318 319 318 317 317 317 316 317 320 322 321 321 321 321 320 321 324 325 326 326 327 328 329 330 331 330 331 331 331 331 331 332 332 333 333 333 332 333
331 331 331 326 324 326 327 327 328 328 328 328 327 326 326 326 326 325 325 325 325 325 324 323 322 322 321 320 320 318 317 316 314 313 314 314 314 315 317 318 317 317 319 319 319 318 318 318 318 317 317 316 317 316 316 319 322 322 321 321 321 321 321 322 324 325 325 326 327 328 329 330 330 331 331 331 331 332 331 331 332 333 334 333 332
330 331 331 325 323 327 327 327 328 328 328 328 327 326 326 326 326 326 325 325 325 325 324 324 323 322 321 320 319 318 317 316 313 313 313 313 314 314 315 317 317 317 319 319 318 318 318 317 317 316 316 316 316 316 316 319 321 321 321 320 321 321 321 322 323 323 324 325 326 326 327 329 330 331 331 331 331 332 332 332 331 332 334 334 333
330 330 329 323 323 325 326 327 327 327 327 327 327 327 326 326 326 325 325 324 325 325 324 324 323 322 322 320 319 318 317 316 314 313 313 313 314 314 315 316 316 317 318 318 317 317 317 316 316 316 316 316 316 316 316 318 319 319 319 320 320 321 321 321 322 322 323 324 325 326 326 328 329 330 331 331 331 332 332 332 332 331 333 334 334
328 327 325 321 322 324 324 325 325 325 326 326 326 326 326 326 326 326 326 324 324 324 324 324 323 322 322 320 320 319 317 316 315 313 313 313 313 314 315 316 316 317 318 317 317 317 316 316 315 315 315 315 315 315 315 316 317 317 318 318 319 319 320 320 320 321 321 323 325 326 325 326 328 329 330 330 331 331 331 332 332 331 332 333 334
328 329 328 322 321 323 323 324 323 323 324 324 325 325 325 325 326 325 324 324 323 322 323 324 323 323 322 321 320 319 318 317 315 314 313 313 312 312 315 316 317 317 317 317 316 316 315 315 315 315 315 315 315 315 315 315 316 316 316 317 317 318 318 319 319 320 321 323 325 325 325 325 326 327 329 329 330 330 331 331 332 331 331 332 332
331 334 332 323 321 323 323 323 323 323 323 324 325 326 325 326 325 324 322 323 324 323 324 324 323 323 322 321 320 319 319 317 315 314 313 313 312 312 314 316 316 316 317 316 316 315 315 315 314 314 314 314 314 314 313 314 315 315 315 315 315 316 316 316 317 318 320 321 322 323 323 325 325 326 327 328 329 329 330 330 331 331 331 331 332
331 335 333 323 321 323 323 323 323 323 324 324 325 325 326 326 325 323 322 323 324 324 324 325 324 323 322 321 320 319 319 317 316 315 313 313 312 312 314 316 316 316 317 316 315 315 315 315 314 313 313 313 314 313 313 313 313 313 314 313 313 313 313 314 315 316 317 318 320 322 323 324 325 325 326 327 328 329 329 329 330 331 331 331 332
336 338 333 323 321 322 322 323 323 323 324 324 325 325 325 326 325 323 323 324 324 325 325 325 324 323 322 321 321 319 318 317 316 315 314 313 312 312 314 316 316 316 317 316 315 315 315 315 314 313 313 313 314 313 313 312 312 312 312 312 311 311 311 312 312 314 315 315 317 320 322 323 324 325 325 326 327 328 328 329 329 330 331 331 331
338 336 327 321 322 322 322 323 322 323 324 323 324 324 324 324 323 323 323 323 324 325 325 325 324 322 322 321 320 319 318 318 316 315 314 313 312 312 314 316 316 316 316 316 315 315 315 315 314 313 313 313 314 313 313 313 312 312 312 311 311 311 311 311 311 311 313 313 315 318 321 322 323 324 325 326 327 327 327 328 328 329 331 331 331
335 330 322 320 323 322 322 323 322 322 323 323 323 323 323 323 322 323 323 323 324 324 325 325 324 322 322 321 320 319 318 317 316 315 314 312 312 312 314 315 315 316 316 316 315 315 315 314 314 314 313 314 314 313 313 313 313 313 313 312 311 310 310 311 311 310 311 312 313 316 319 321 322 323 325 325 326 327 327 328 329 329 330 330 330
332 331 328 324 323 322 322 322 322 322 322 322 323 322 322 323 323 323 323 323 323 324 325 325 323 322 322 321 320 319 318 317 316 315 313 312 312 312 313 314 315 316 316 315 315 315 314 314 314 314 314 314 314 314 313 314 313 313 313 312 310 309 310 311 311 311 311 312 312 314 318 320 321 323 324 325 325 326 327 327 328 329 329 330 330
335 335 334 329 323 321 322 322 321 321 322 322 323 323 322 323 323 323 322 322 322 323 324 324 323 322 321 321 320 318 318 317 316 315 313 312 312 311 312 314 315 316 316 315 315 315 314 315 314 315 315 314 314 314 313 314 314 313 313 311 309 309 311 312 312 312 311 311 312 314 317 320 321 322 323 324 325 326 327 327 328 329 329 329 329
337 336 335 331 324 320 320 322 321 320 321 322 322 322 322 322 322 322 321 322 321 322 324 324 323 322 322 321 320 318 318 317 316 314 312 311 311 311 312 314 314 315 316 315 315 314 314 314 314 314 315 315 315 314 314 314 314 314 313 311 309 310 312 313 313 312 311 312 312 314 318 320 321 322 323 323 325 326 327 327 327 328 328 329 330
335 336 335 334 329 323 321 321 320 319 320 320 320 321 321 321 321 321 320 321 322 321 323 324 323 322 322 321 320 318 318 317 315 314 312 311 311 312 313 314 314 315 316 315 315 315 314 314 314 314 314 314 315 315 315 315 314 314 313 311 309 310 312 314 314 313 312 312 312 316 320 321 322 323 324 324 325 326 326 327 327 327 327 327 328
334 335 337 338 332 324 322 320 319 320 319 320 321 321 321 321 321 320 320 321 322 321 322 323 322 321 321 320 319 318 317 316 315 313 312 311 311 312 314 314 314 315 315 315 315 314 313 313 313 313 313 314 315 314 315 315 315 314 312 310 309 309 311 314 315 313 312 312 314 319 321 322 322 324 325 325 325 326 326 326 327 327 327 326 326
335 334 337 340 330 321 320 320 319 318 318 319 321 321 321 321 321 320 320 322 322 321 321 321 321 320 320 319 318 318 317 316 315 313 311 311 311 313 315 314 314 315 315 314 314 313 313 312 312 312 312 313 314 315 315 315 315 314 312 310 310 309 310 314 316 315 313 314 318 321 321 322 322 323 324 324 324 325 325 325 326 326 326 326 326
335 334 335 336 328 319 319 320 318 317 317 317 318 320 320 320 320 319 320 321 322 321 321 321 320 320 320 319 318 317 316 314 313 311 311 311 312 313 315 314 314 314 314 313 313 313 312 312 312 312 312 312 314 314 314 315 314 313 312 310 310 309 310 313 316 317 316 318 320 321 321 321 322 322 323 324 324 324 324 325 325 326 327 326 326
333 332 332 333 327 320 318 318 318 318 317 316 316 317 317 318 318 318 319 321 321 321 321 321 321 320 319 318 317 315 313 312 312 311 311 311 312 313 314 313 313 313 312 312 312 311 311 311 311 311 311 312 313 314 314 314 314 313 312 310 309 309 309 312 315 317 317 319 320 320 320 320 321 322 322 322 323 323 323 324 324 325 326 326 327
333 333 333 331 324 320 318 319 318 318 318 318 317 317 317 316 316 316 318 319 320 321 321 320 320 319 318 317 316 314 313 312 312 311 311 312 312 312 312 312 311 311 310 310 310 310 310 310 310 311 311 312 312 314 314 314 313 312 311 311 309 309 310 313 316 317 318 319 320 320 319 319 320 321 320 321 322 321 321 322 323 323 323 323 324
334 334 330 323 320 319 318 319 319 318 318 319 318 318 317 316 316 316 317 317 319 320 319 318 318 318 317 317 315 314 313 312 312 311 311 311 311 311 311 310 310 309 309 309 309 309 309 309 310 311 311 312 312 313 314 314 313 312 311 311 309 309 312 314 316 317 318 319 319 319 318 317 319 320 319 320 321 320 320 321 321 321 322 322 322
336 335 325 319 319 320 319 319 319 319 319 319 319 319 317 316 316 316 315 316 316 316 316 315 315 315 315 315 315 314 313 313 312 311 311 311 311 310 310 310 310 309 309 309 309 309 310 310 310 311 311 311 312 313 314 313 313 312 312 311 309 309 312 315 316 317 318 318 318 318 316 316 317 318 318 320 320 320 320 321 320 320 321 321 321
330 327 322 319 320 320 319 320 320 319 319 319 319 319 318 317 317 316 316 315 315 314 314 314 313 313 313 314 314 314 313 313 312 311 310 310 310 310 310 310 310 309 309 309 309 310 310 310 310 310 310 311 311 313 313 313 313 312 311 311 309 308 311 315 316 317 318 317 317 317 316 315 316 316 317 319 320 320 320 320 320 319 319 320 320
321 321 321 320 321 321 320 320 320 320 320 320 319 319 319 319 318 317 317 316 315 315 315 314 314 312 312 312 312 313 312 313 312 311 311 310 310 310 310 310 310 310 310 309 309 310 310 310 310 310 310 310 311 313 313 313 313 313 312 311 309 308 311 315 315 315 317 317 317 316 315 314 314 315 316 318 319 320 320 320 320 318 318 318 318
319 320 321 320 321 321 320 320 320 320 320 320 320 320 319 319 319 318 317 317 316 316 316 316 314 313 312 312 311 312 312 312 312 311 311 310 310 309 310 309 309 309 309 309 308 309 310 310 310 310 310 310 311 313 313 313 313 312 311 310 309 309 312 314 314 315 317 317 316 316 315 314 314 315 317 318 319 321 320 320 319 318 317 317 317
320 320 320 321 321 320 320 320 320 320 320 320 320 320 319 319 319 319 318 317 316 316 316 316 315 314 313 312 311 312 312 312 312 311 310 310 310 309 309 309 309 308 308 308 308 309 309 309 308 307 308 310 312 313 313 313 313 312 311 309 309 310 312 314 313 314 316 317 316 315 314 312 312 314 317 319 320 321 320 320 319 318 317 316 316
320 319 320 320 320 320 320 320 320 319 319 319 319 319 319 320 319 319 319 318 318 318 318 317 316 315 314 313 312 311 312 312 312 311 311 310 310 309 309 309 308 308 308 308 308 308 308 307 306 305 305 308 311 312 312 312 312 312 310 309 309 310 312 313 313 314 315 316 316 314 312 311 312 314 316 319 321 321 320 320 319 319 318 316 316
319 318 319 320 320 320 320 319 319 319 319 319 319 319 319 319 319 319 319 319 319 319 319 317 316 315 314 314 313 312 312 312 312 311 311 310 310 309 309 309 308 308 308 308 307 307 307 306 305 304 304 306 309 311 312 312 312 311 309 309 310 310 310 311 312 313 315 316 314 313 311 310 312 313 315 318 320 320 320 319 319 319 318 317 316
318 318 318 319 319 320 319 319 319 319 319 319 319 319 319 319 319 319 319 319 319 319 319 318 317 316 315 314 313 312 312 312 312 311 311 310 310 310 309 309 308 308 308 308 307 306 306 306 306 304 304 304 307 310 312 312 311 310 309 309 309 308 308 310 311 312 314 314 313 312 311 310 311 312 314 317 319 320 320 319 318 318 317 316 316
318 317 318 318 319 319 319 319 319 319 319 319 319 319 319 318 319 319 318 319 319 319 319 319 318 317 316 315 314 312 312 312 312 311 311 311 310 310 310 309 308 308 308 307 307 306 307 307 306 305 305 305 306 310 312 311 310 309 309 310 309 307 306 308 309 309 310 310 310 310 310 309 310 312 315 317 318 319 319 318 318 317 316 315 314
317 316 318 318 318 319 318 318 319 318 318 319 318 319 319 318 319 319 318 319 319 319 319 319 318 318 317 315 314 313 312 312 311 311 311 311 310 310 310 310 309 308 308 308 308 307 307 307 306 306 308 308 309 310 312 311 310 309 310 311 309 305 304 304 305 306 306 306 308 308 308 308 310 312 315 317 318 318 318 317 317 316 314 313 312
317 317 318 318 318 318 318 318 318 318 318 319 318 319 319 319 319 319 318 318 319 319 319 319 319 318 317 316 314 313 312 312 311 311 311 311 311 311 311 310 310 310 309 309 308 308 308 307 307 308 310 310 311 311 311 310 309 309 310 308 306 304 304 305 306 306 305 305 307 308 308 309 311 313 315 316 317 317 317 316 316 314 313 312 312
317 318 318 318 318 318 318 318 318 318 318 319 319 319 319 319 319 319 318 318 319 319 320 319 319 319 318 316 315 313 312 311 311 311 311 311 311 311 311 311 310 310 310 309 308 308 308 308 309 310 310 310 311 311 311 309 309 309 308 305 304 304 305 306 308 310 309 308 309 309 309 310 311 312 314 315 316 316 316 314 314 313 313 313 313
318 318 317 318 318 318 318 318 318 318 318 318 319 319 319 319 319 319 319 319 319 319 320 320 319 319 318 317 315 314 313 312 311 311 311 311 311 311 311 311 311 310 309 308 307 308 309 309 309 310 310 310 311 311 310 310 309 307 305 305 306 306 305 305 309 311 311 310 311 311 310 310 310 311 312 313 315 315 314 314 314 314 313 313 313
318 318 317 318 318 318 319 318 317 318 318 318 319 319 319 319 319 319 319 319 319 319 319 319 320 319 318 317 316 315 314 312 312 311 311 311 311 311 311 311 310 310 309 308 307 309 309 309 309 309 310 311 311 310 310 310 309 306 305 306 307 307 305 305 307 310 311 311 311 311 310 310 310 310 310 310 312 313 314 315 315 314 313 313 312
318 318 317 318 318 318 318 317 317 318 318 319 319 319 318 319 318 319 319 319 319 319 319 319 319 319 318 318 317 316 314 313 312 312 311 311 311 311 311 311 311 310 309 308 308 308 307 306 306 307 308 310 310 310 310 310 309 307 306 307 307 307 307 305 305 308 310 309 308 307 308 308 308 308 308 308 309 310 311 313 313 312 313 313 312
317 317 318 318 318 318 317 317 317 317 318 319 319 318 319 319 318 318 319 318 318 318 318 318 319 319 319 318 318 317 315 314 313 312 312 312 311 311 311 310 310 310 309 309 308 307 305 304 304 305 306 307 308 309 310 310 310 308 307 307 307 307 307 306 305 306 306 305 304 304 304 304 306 306 306 307 308 310 310 311 311 312 313 313 312
317 317 318 318 318 317 317 316 316 317 318 318 319 319 319 318 318 318 318 318 318 318 317 318 318 318 319 319 318 317 316 314 313 313 312 312 312 311 311 311 310 309 309 309 308 306 304 304 304 304 304 304 305 307 309 310 310 309 308 308 308 307 307 307 306 305 305 304 303 303 302 302 303 305 305 305 307 310 310 309 310 311 312 312 310
Wind_Speed
12 19 21 22 23 22 22 20 18 17 16 15 14 12 10 8 5 3 3 1 1 2 5 7 9 9 10 8 6 7 9 11 13 14 12 10 9 9 10 10 8 7 6 6 5 9 13 11 10 11 9 9 10 11 11 11 11 10 9 8 5 4 5 5 4 4 5 7 8 9 10 12 10 9 11 12 12 13 18 21 20 20 20 20 20
9 14 17 19 21 20 20 20 20 20 18 16 14 13 12 10 7 6 5 3 2 2 2 5 7 7 9 9 6 6 9 11 12 13 10 9 10 10 9 9 9 6 5 6 5 7 12 10 10 11 10 9 8 7 8 8 9 9 9 8 7 6 6 6 6 4 3 4 4 5 6 8 10 11 10 12 12 12 14 15 16 19 22 23 21
6 10 13 15 16 17 18 19 20 20 18 17 15 13 13 11 9 8 7 5 3 2 1 3 5 6 7 8 5 4 9 11 12 11 9 10 10 10 9 9 10 6 4 6 4 6 11 9 8 10 10 9 8 7 7 7 7 7 7 7 6 5 6 6 6 7 6 4 1 1 2 2 5 8 9 11 12 12 13 13 12 15 21 25 23
6 7 8 12 17 19 21 21 21 20 18 18 17 15 14 13 12 10 9 6 4 3 2 2 4 5 6 6 4 4 9 11 10 9 9 11 9 9 10 10 12 8 5 6 4 5 9 8 8 9 9 10 9 8 7 8 7 6 6 5 4 3 5 5 5 8 10 6 1 1 0 1 1 4 5 8 10 12 13 14 12 12 18 25 25
10 9 8 14 20 22 23 23 22 22 21 20 19 18 16 15 14 13 11 7 5 5 3 2 4 5 6 6 4 4 8 10 9 10 11 12 10 9 10 11 12 9 7 7 5 6 8 7 8 9 8 9 9 8 8 8 8 7 6 4 2 2 4 5 5 7 11 11 6 2 2 1 2 2 2 4 8 11 13 13 13 12 17 23 25
10 10 11 16 19 20 20 21 22 24 24 22 21 19 17 16 15 14 13 9 7 6 4 3 4 5 6 8 5 5 8 9 9 10 11 12 12 10 9 10 12 11 9 8 7 8 7 5 7 8 7 7 8 9 9 9 8 7 7 4 2 2 3 5 7 7 8 11 13 10 4 1 2 1 1 2 4 7 10 12 12 14 18 21 21
7 8 9 12 16 17 18 19 22 26 26 23 21 19 18 16 15 15 13 10 8 7 5 4 4 4 4 7 6 4 6 7 7 8 9 11 12 11 10 10 12 13 12 10 9 9 6 3 6 7 6 7 8 8 9 10 9 8 8 6 4 3 2 4 6 7 7 8 12 16 15 10 6 3 1 0 2 3 6 9 11 13 17 19 18
7 7 7 10 14 18 19 19 21 24 25 23 22 20 19 18 16 16 13 10 10 9 7 5 5 5 4 5 6 5 5 6 6 7 8 10 10 10 11 12 13 13 13 11 11 10 6 2 5 9 8 7 8 8 9 9 9 8 9 8 7 4 2 4 6 7 8 8 8 12 15 15 13 10 8 4 1 1 3 4 7 10 13 17 18
7 7 8 12 16 19 21 20 18 19 22 22 21 20 20 19 17 16 13 11 11 11 9 7 6 5 5 5 6 6 6 6 5 6 9 10 9 9 10 12 14 14 12 11 11 11 8 3 4 8 9 8 8 8 9 8 8 8 8 8 8 5 4 3 5 7 8 9 8 9 10 12 12 12 13 10 5 3 3 3 4 6 9 14 18
6 7 10 14 17 19 20 19 19 18 18 18 18 19 21 20 18 16 14 12 13 12 11 9 7 5 5 6 6 7 7 7 5 6 9 9 9 9 10 11 14 14 12 11 10 10 10 8 6 9 9 7 7 8 9 8 7 6 7 7 7 6 4 3 4 5 7 8 8 9 9 10 9 8 10 12 9 6 5 5 5 5 5 9 13
6 6 10 14 16 17 17 18 20 18 16 15 15 18 22 21 18 17 15 14 13 12 12 10 8 7 7 7 7 8 9 8 5 6 9 8 8 10 10 11 12 13 12 11 10 9 9 9 9 9 9 7 7 9 10 8 7 6 7 8 7 6 5 5 4 5 7 9 8 10 11 12 11 9 9 11 10 7 5 5 6 8 9 11 12
6 5 8 11 13 14 15 18 20 18 16 16 15 16 21 22 19 17 16 15 14 13 13 12 9 8 8 8 7 8 9 9 6 5 7 7 8 9 10 11 12 13 13 12 10 8 8 9 9 10 10 8 8 9 9 8 7 8 9 9 9 7 5 5 5 6 7 9 10 11 12 14 15 15 14 13 12 11 9 5 5 8 9 12 15
6 6 6 7 10 13 15 18 18 16 16 17 16 16 19 21 20 19 18 17 16 14 14 13 11 10 9 10 9 7 9 9 7 5 5 6 7 9 9 10 12 15 14 12 9 7 7 9 9 9 10 9 8 10 10 7 6 8 10 10 10 9 6 6 6 6 7 8 10 11 13 14 16 17 17 16 16 15 12 6 6 8 7 8 11
6 6 5 6 10 14 15 16 16 15 16 17 17 17 18 20 21 20 19 18 17 16 15 14 13 11 10 11 10 7 8 8 5 3 3 4 7 8 8 9 12 14 13 10 7 6 8 9 9 9 9 8 8 9 10 6 4 6 9 10 11 9 7 7 7 7 8 8 8 11 13 15 17 17 18 18 18 16 12 8 6 7 8 9 9
5 5 6 8 12 14 15 15 15 16 16 16 17 17 17 20 22 21 19 18 18 17 17 16 15 13 12 12 10 7 7 6 2 1 2 4 6 7 7 8 11 13 10 7 6 7 10 10 9 9 8 8 7 8 9 6 3 5 8 10 10 10 10 9 8 8 9 9 9 10 12 15 17 17 18 18 19 19 17 14 10 5 6 6 6
5 5 6 10 13 13 13 14 14 14 15 16 18 17 17 20 22 21 19 18 18 18 19 19 17 14 13 12 11 7 6 5 3 1 2 4 5 5 6 7 10 11 7 6 8 9 10 9 8 8 8 8 8 9 8 6 5 6 7 8 9 9 11 11 10 10 11 11 11 11 12 14 16 16 17 17 18 20 19 19 16 10 6 4 3
5 5 6 9 11 11 13 14 13 12 13 14 16 16 17 20 20 19 18 16 17 18 19 20 18 16 14 13 12 8 6 5 3 2 3 4 4 4 6 7 9 9 5 5 9 9 8 8 9 9 9 9 9 8 8 6 6 7 6 7 9 9 10 11 12 12 12 12 12 12 12 13 14 14 16 17 17 20 20 20 19 17 13 6 3
5 5 6 8 10 11 13 14 13 13 13 14 15 16 17 19 19 18 17 17 17 17 18 20 19 17 16 15 13 10 7 5 4 2 3 4 4 4 5 6 8 7 4 6 8 7 6 8 10 10 9 9 9 9 8 6 7 7 7 7 8 9 10 11 11 12 13 13 12 12 13 13 14 13 15 16 17 19 20 20 20 20 19 13 7
5 5 5 8 11 13 13 13 12 13 14 14 14 15 17 18 18 17 17 16 16 16 16 19 20 19 17 16 14 11 9 6 4 3 3 4 4 5 4 4 7 6 4 6 6 4 6 9 10 10 9 9 9 9 9 8 7 7 8 8 9 10 11 11 11 12 12 13 12 14 15 14 12 12 14 14 15 16 18 19 19 19 20 20 16
5 5 5 7 11 14 14 14 14 14 15 15 15 15 16 17 17 16 16 15 16 16 16 18 21 21 19 17 14 12 10 7 5 4 4 4 4 5 4 4 5 4 3 4 4 4 7 9 10 10 9 9 9 9 9 9 9 10 10 11 11 12 12 13 13 12 12 13 14 16 16 14 12 12 13 14 14 15 16 18 19 19 19 20 21
6 5 5 7 11 13 13 14 15 15 16 16 16 16 17 18 17 16 15 15 15 16 17 20 22 22 20 18 15 13 11 8 6 5 5 4 4 6 5 3 4 3 2 3 3 4 7 9 9 9 9 9 8 8 10 11 12 12 12 12 13 14 14 15 15 15 14 15 15 15 16 15 13 12 12 13 14 14 15 16 17 18 20 21 21
6 6 6 8 11 12 13 14 14 14 17 17 16 16 17 19 18 17 17 16 17 18 19 21 23 23 21 18 16 15 12 9 8 7 5 4 5 6 4 4 4 3 2 2 3 5 7 8 9 8 8 8 8 8 10 11 13 12 12 13 15 16 17 17 17 17 17 17 17 15 15 15 15 14 13 12 13 13 14 16 17 18 20 21 21
5 6 6 8 11 10 11 13 12 12 15 17 17 17 18 19 18 17 18 18 18 19 20 22 23 22 21 18 16 15 12 10 9 9 7 5 5 5 3 3 4 4 3 2 3 4 6 7 7 6 7 8 8 8 10 11 12 12 13 14 16 17 18 19 19 19 17 17 18 17 16 16 17 16 14 12 13 13 13 15 17 18 19 20 20
5 4 3 4 6 7 8 10 11 12 14 16 17 17 18 19 19 19 20 21 21 22 22 23 23 22 19 18 17 15 13 11 11 10 8 5 4 3 2 3 5 5 3 2 3 3 5 6 5 5 7 8 8 8 9 10 11 12 13 14 16 17 18 18 18 18 17 17 17 18 17 17 17 17 16 14 13 12 12 14 15 17 18 20 20
3 2 2 2 3 6 6 6 8 10 13 15 15 16 17 18 20 21 21 21 22 23 24 23 22 21 19 18 17 15 13 12 12 11 8 5 3 3 3 5 7 6 3 2 3 3 5 6 6 6 6 7 8 8 9 10 10 11 12 13 16 17 17 17 16 16 16 16 17 18 18 17 16 17 16 15 14 13 12 13 14 15 16 18 19
5 4 2 3 4 3 3 4 4 6 9 13 15 15 16 18 20 21 22 21 20 21 23 23 21 20 19 18 17 16 13 12 13 12 8 6 3 3 3 5 6 5 3 2 2 3 5 6 7 8 7 6 7 9 10 11 10 11 12 14 17 18 17 17 16 14 14 15 16 17 18 17 16 15 16 16 14 13 13 13 14 14 14 16 18
6 5 4 4 4 2 1 1 1 2 3 6 9 9 9 11 12 14 17 19 18 18 21 22 20 19 18 18 18 16 14 13 13 12 9 7 5 4 4 4 4 4 4 2 3 4 5 5 7 8 7 7 7 8 10 11 11 12 13 15 19 19 17 17 17 14 12 13 15 16 17 17 14 14 16 16 14 15 15 15 14 14 15 15 15
5 5 5 5 4 1 2 3 2 2 1 2 3 3 3 4 7 9 10 12 13 15 19 20 19 18 18 18 17 15 14 13 13 12 10 8 7 7 7 5 3 4 6 5 5 5 4 5 6 6 7 8 9 9 9 10 11 12 13 16 19 20 18 19 18 14 11 11 13 14 15 14 13 13 15 14 13 13 14 14 13 12 13 14 14
5 6 6 5 4 1 1 1 1 4 3 2 2 2 2 4 7 9 9 7 10 13 16 17 17 17 17 16 16 15 14 13 12 12 11 9 9 10 9 5 3 5 6 6 5 5 5 5 5 6 7 8 9 10 9 10 11 12 13 17 20 20 19 20 19 14 10 10 11 12 12 11 12 13 13 13 12 11 11 12 11 11 11 12 12
6 6 6 5 5 3 1 1 3 6 6 5 5 4 5 6 7 9 9 4 9 11 13 16 16 14 14 14 14 14 13 12 11 11 10 10 10 11 9 5 3 5 5 5 5 5 6 6 6 7 7 7 9 10 10 10 11 12 14 17 20 21 19 20 18 14 10 9 9 11 11 11 13 13 13 13 12 10 9 10 9 10 11 11 11
6 6 5 4 4 3 2 4 5 5 6 6 5 5 6 6 6 8 7 2 8 11 12 14 13 11 12 12 11 10 10 10 10 10 10 10 10 11 8 5 5 6 6 6 7 7 7 7 7 8 7 7 9 10 10 11 11 13 15 17 20 21 19 19 17 13 11 10 9 10 11 12 13 13 13 13 12 10 10 9 6 5 7 8 9
6 6 5 4 4 5 4 4 3 2 5 6 6 6 7 6 6 6 5 1 7 11 12 11 10 10 11 10 9 8 8 9 8 9 9 9 9 10 9 7 7 6 6 7 7 7 8 8 7 8 8 8 9 11 10 10 11 13 15 17 20 20 19 19 16 12 11 10 9 10 12 12 12 12 13 13 10 9 10 9 7 6 5 5 7
6 6 5 6 7 8 7 5 3 0 2 5 5 6 6 6 6 6 4 0 6 9 10 9 9 9 10 9 9 8 8 7 7 7 8 8 9 10 9 8 6 5 6 8 9 9 10 9 8 8 8 8 9 10 9 9 11 13 14 16 19 19 18 18 15 12 10 7 7 10 13 12 11 11 12 11 9 7 8 8 7 8 7 6 7
6 6 7 9 10 10 8 6 5 4 3 3 4 5 5 5 5 5 2 1 4 7 7 7 7 9 10 10 9 9 8 7 8 8 9 9 9 9 8 6 4 4 6 8 11 12 11 11 10 10 10 9 10 10 9 9 12 13 14 16 19 18 16 15 13 10 7 5 6 9 12 12 11 10 10 8 6 5 5 6 5 5 6 6 6
7 6 8 11 13 12 10 9 8 7 6 4 5 6 6 6 5 5 3 2 3 5 5 6 7 8 9 10 11 10 8 8 9 10 10 10 9 8 7 6 5 5 6 7 10 11 11 11 12 11 10 10 10 11 10 10 11 13 14 16 18 18 15 14 11 8 5 5 7 8 10 11 10 10 9 5 4 4 5 5 4 2 1 2 3
9 10 12 14 15 14 12 11 10 9 8 7 7 7 8 7 6 6 7 6 6 7 7 8 9 10 9 10 11 11 10 9 10 11 11 9 9 8 7 7 7 8 8 8 10 12 11 11 12 11 11 11 11 11 11 10 12 13 14 16 18 17 14 13 11 7 5 7 7 8 9 10 9 9 8 4 5 8 8 6 6 3 1 1 2
14 16 17 17 16 15 13 11 11 11 10 10 10 10 11 10 9 9 9 10 11 11 9 9 10 10 10 10 11 12 12 11 11 12 12 10 9 8 7 7 7 9 10 10 11 11 11 12 13 13 12 12 12 11 11 11 12 14 15 16 17 15 12 11 11 8 7 8 9 8 9 10 8 7 7 5 5 10 10 8 7 5 3 3 4
17 18 18 17 16 15 14 12 12 12 11 12 12 12 13 13 13 12 12 12 14 14 12 12 12 11 10 10 11 12 13 12 12 12 12 10 8 7 7 7 8 9 10 11 12 11 11 12 14 14 15 15 13 11 11 12 14 14 15 16 17 14 11 11 10 8 6 7 9 9 9 11 10 6 5 6 6 9 12 11 9 7 6 5 6
18 18 18 18 18 16 15 14 14 13 12 12 13 14 15 16 17 16 14 15 16 16 15 15 14 12 11 11 11 12 13 13 13 13 12 11 9 8 7 7 8 8 9 10 11 12 11 11 12 14 15 15 14 12 12 13 14 14 15 16 15 13 11 10 9 7 5 7 9 9 11 12 11 7 5 6 7 11 14 12 10 9 8 7 7
17 16 16 18 19 18 17 16 15 15 14 13 13 15 16 18 19 18 18 18 18 18 17 16 16 15 13 12 12 12 13 13 14 14 13 12 10 9 7 7 8 8 8 8 9 11 12 12 13 14 14 14 14 14 14 14 13 13 15 16 14 12 11 9 8 6 6 8 9 9 10 11 11 9 7 7 8 13 14 12 10 10 9 9 9
14 14 14 17 20 19 18 17 16 15 14 13 13 14 16 17 18 19 20 21 21 20 18 17 17 17 15 13 12 13 14 14 15 14 13 12 11 10 9 9 10 9 9 9 11 12 14 16 16 15 13 13 15 16 15 13 12 12 14 14 12 10 9 8 7 6 6 8 8 8 9 11 12 10 8 7 9 13 15 12 10 10 9 9 9
12 13 14 17 19 20 19 17 15 15 14 13 13 14 15 16 16 18 19 20 21 21 20 19 19 19 17 15 14 14 14 15 15 15 14 13 12 11 11 10 9 10 11 12 13 15 17 18 17 15 14 14 15 16 15 12 11 11 12 11 8 7 6 5 4 5 6 8 9 10 11 12 12 11 9 8 7 11 16 14 11 10 9 9 9
13 14 15 17 18 19 18 15 12 11 10 10 12 14 14 14 15 15 15 17 19 21 21 20 20 21 20 17 15 15 15 16 16 16 15 14 13 12 10 9 9 10 12 14 15 16 18 20 19 17 15 14 14 15 14 11 9 9 9 8 7 7 6 6 5 6 7 9 11 12 13 14 13 11 9 8 7 8 14 14 11 11 12 11 10
16 15 16 17 17 15 14 11 8 7 8 8 9 11 12 13 13 13 13 14 17 18 20 20 20 21 21 19 17 16 16 17 17 16 15 14 14 13 11 9 9 11 13 16 17 19 21 22 20 16 13 12 13 14 12 9 9 8 7 7 8 8 7 7 7 9 10 11 12 12 13 13 11 9 8 7 5 5 10 11 11 13 14 13 12
15 13 14 16 15 12 11 9 8 8 9 9 8 9 9 11 12 12 13 14 15 16 19 19 20 21 22 21 19 18 18 18 17 16 16 15 15 14 12 11 11 12 16 18 18 19 19 17 14 11 10 10 10 12 11 8 8 7 6 6 7 6 7 8 10 10 10 10 10 11 10 8 6 6 6 6 2 4 9 11 13 15 15 13 10
12 13 15 15 12 11 10 9 8 8 9 9 9 10 11 13 13 13 13 14 15 16 18 19 19 21 23 22 21 19 19 19 18 17 16 15 15 15 14 13 13 14 16 17 16 16 13 9 7 8 8 7 7 11 11 8 6 6 5 3 4 5 6 9 9 8 6 6 7 7 5 3 2 2 2 2 4 9 13 15 16 15 13 11 10
14 17 17 14 13 12 11 10 10 9 9 10 10 10 11 12 12 12 13 13 13 14 16 18 19 20 22 23 23 21 21 21 19 18 17 16 16 16 15 15 15 15 16 17 15 12 9 7 7 7 7 5 8 11 11 8 7 8 6 4 4 6 7 7 7 7 5 4 4 4 3 2 1 2 3 4 7 12 16 16 15 12 10 11 10
18 20 18 16 16 14 12 11 10 8 9 9 9 8 9 10 11 12 12 11 12 13 15 17 18 20 21 23 24 24 24 23 21 20 19 18 18 18 18 18 17 17 17 17 16 14 12 10 9 8 7 9 12 14 13 11 10 10 8 5 5 6 6 6 5 5 4 2 2 2 2 1 1 2 3 4 7 11 15 15 12 9 9 11 10
21 21 19 18 17 14 12 10 9 7 7 7 7 7 9 11 11 10 9 10 11 13 13 15 17 19 20 20 22 24 25 25 24 22 21 20 19 19 19 19 19 18 18 18 17 18 17 14 12 10 10 12 15 16 14 12 11 11 9 7 7 6 6 6 4 2 2 2 2 2 2 2 2 2 3 3 5 7 11 13 11 10 12 14 12
22 21 20 19 16 13 10 8 8 8 7 7 7 8 9 9 9 8 8 10 12 13 13 14 15 16 18 19 20 23 25 26 25 24 22 22 21 20 20 20 19 19 19 19 20 20 18 15 13 12 12 13 15 15 14 14 14 13 11 10 9 7 6 6 6 5 4 3 4 5 5 4 5 5 3 1 2 5 9 10 9 11 15 16 13
22 22 21 19 15 11 10 9 9 9 9 8 8 8 8 8 9 10 11 12 13 14 15 15 15 15 16 18 19 21 23 25 26 25 24 23 23 22 22 22 21 20 20 21 21 21 19 17 15 15 13 13 14 14 14 16 17 15 14 13 11 10 8 7 8 9 10 9 9 9 8 6 6 6 5 4 3 6 10 12 12 14 16 15 13
Wind_Direction
203 195 188 179 179 182 182 183 183 183 183 186 187 189 197 202 206 218 220 255 341 20 16 15 13 8 6 4 4 1 348 340 338 339 346 360 7 0 352 353 351 351 7 14 21 26 28 39 41 31 31 39 49 56 54 48 38 22 12 14 360 305 293 296 289 279 282 284 282 275 260 252 245 227 216 206 195 201 210 212 212 215 218 219 218
194 190 191 183 183 186 184 184 184 184 186 188 191 194 200 202 210 229 228 239 305 355 1 4 7 360 357 356 353 349 348 350 348 343 348 7 16 13 2 357 354 340 344 3 12 20 24 38 47 33 30 34 38 45 47 44 38 26 11 7 5 343 309 295 281 253 257 273 278 310 300 268 249 237 227 215 200 196 200 204 210 216 221 221 220
198 192 192 183 186 189 187 192 194 191 191 192 197 200 200 201 210 225 224 229 271 312 309 337 2 2 356 350 337 336 350 355 355 352 357 7 13 16 8 4 3 352 344 6 16 20 23 42 50 30 26 33 35 36 37 38 35 27 15 5 6 347 309 291 267 235 231 255 254 302 312 305 264 250 240 229 215 204 200 202 211 217 219 221 220
210 203 183 175 188 193 192 200 201 196 196 195 199 202 201 205 211 217 219 225 254 285 306 299 324 352 0 349 320 324 350 356 2 5 4 5 10 11 7 5 4 5 23 28 29 21 25 46 43 21 24 37 41 43 43 43 40 33 23 15 6 326 295 290 271 234 224 231 215 122 138 64 298 273 255 236 223 213 208 207 209 213 215 217 219
197 200 181 182 194 198 198 203 202 198 200 200 201 204 208 212 213 216 220 224 245 266 295 293 295 328 356 354 320 319 349 356 1 7 7 8 12 11 11 12 9 10 20 26 33 25 27 41 27 14 26 43 52 53 48 45 46 47 37 29 26 323 282 268 267 247 231 230 224 179 75 78 235 288 318 248 226 216 218 215 207 206 211 212 216
200 202 188 187 196 202 205 208 204 201 205 206 204 207 212 215 215 215 216 223 241 255 271 288 291 304 338 352 336 322 347 355 355 359 5 8 11 13 14 12 14 16 14 12 15 18 26 30 16 13 27 46 58 56 47 39 42 49 43 36 33 359 298 264 262 259 247 238 234 229 230 252 268 329 19 272 250 222 219 219 209 204 207 208 212
216 217 201 190 195 202 209 210 207 207 210 209 208 211 215 215 214 211 211 222 235 242 252 268 290 291 314 346 342 319 337 352 358 2 4 7 9 12 12 11 16 22 20 17 20 25 33 23 15 21 25 40 56 53 43 35 34 43 42 35 32 21 319 281 273 264 257 252 242 237 238 247 261 270 245 286 313 255 225 218 215 210 210 212 214
208 214 208 200 202 206 210 210 211 213 213 211 211 214 216 216 213 209 210 221 227 231 242 251 278 287 288 325 337 322 317 334 355 4 2 2 4 6 13 18 20 23 21 19 28 37 43 24 16 27 31 40 51 46 37 31 32 43 44 36 33 29 352 298 287 273 261 261 256 241 239 247 254 253 250 243 199 276 276 240 226 223 220 221 221
206 209 209 208 211 214 215 214 216 216 213 214 217 218 217 216 212 208 212 220 220 224 236 247 267 278 271 294 323 326 309 310 335 356 356 356 1 7 16 20 18 18 19 18 28 40 47 45 6 15 25 35 42 34 22 19 30 43 40 31 29 28 14 323 291 282 270 267 267 258 251 256 257 253 251 248 230 225 271 280 246 238 232 230 227
213 218 218 218 219 220 222 224 226 223 217 220 226 223 216 213 211 209 213 217 217 222 232 244 256 258 256 276 302 317 312 303 318 349 357 1 12 20 22 20 15 14 18 18 22 37 47 49 25 15 21 26 28 21 11 10 22 33 25 16 20 25 19 350 308 292 289 284 273 263 260 258 254 249 242 238 233 226 237 258 259 252 250 247 237
215 224 229 232 233 231 231 234 236 233 226 226 229 223 214 211 210 209 211 215 219 223 232 243 250 248 249 262 283 305 310 302 308 344 359 9 19 26 24 19 13 10 9 9 15 32 43 45 38 28 26 24 19 14 13 17 21 17 8 4 7 13 17 4 337 311 301 296 283 265 258 256 250 244 234 226 223 220 227 249 256 254 260 263 261
213 221 231 237 240 240 236 238 241 237 229 225 223 217 212 211 211 210 211 215 221 227 235 242 242 242 244 250 271 300 307 301 301 331 357 8 12 22 24 17 9 3 359 360 11 28 34 37 39 31 28 26 17 9 6 11 17 12 2 358 359 359 2 2 348 334 313 299 292 279 268 263 255 250 247 237 230 227 226 233 245 249 257 260 262
209 216 225 233 236 239 237 238 241 236 226 223 221 217 213 214 216 215 215 219 223 229 235 236 234 240 245 247 261 292 309 306 298 308 349 7 7 14 18 14 3 356 355 355 3 22 29 29 27 26 26 19 12 9 1 351 354 3 359 353 354 352 348 350 345 340 326 308 301 292 280 270 263 260 258 252 246 238 227 226 237 237 248 265 269
204 211 219 229 233 239 240 239 238 233 227 225 225 225 221 220 220 221 223 224 225 229 234 233 232 241 246 247 254 279 310 313 296 290 334 6 11 11 6 4 358 352 352 354 2 20 20 14 14 22 25 11 2 3 2 353 328 348 355 350 353 352 346 343 339 339 336 327 313 299 287 278 273 271 266 259 253 243 229 224 232 235 245 260 270
211 213 222 233 237 239 240 238 236 234 232 229 227 228 227 223 220 222 225 225 226 230 234 233 234 241 244 244 248 266 303 309 295 273 324 3 11 7 355 350 351 352 357 4 12 9 4 10 21 27 24 10 1 357 2 10 356 352 352 349 354 355 350 347 341 340 341 336 325 309 293 283 279 276 271 265 257 249 243 238 230 227 245 247 254
227 224 231 240 240 238 236 235 235 234 234 231 228 227 225 221 218 219 222 225 229 233 236 236 237 240 240 240 242 253 287 292 281 293 345 357 355 355 351 345 347 352 359 11 13 8 9 21 25 14 4 357 354 354 4 24 20 2 353 348 349 346 346 347 344 341 341 337 331 320 303 287 283 281 276 271 264 258 254 248 238 229 234 237 237
228 228 233 241 242 236 233 234 233 231 231 230 226 221 220 220 219 220 224 231 235 236 238 238 237 236 237 238 238 241 266 281 272 282 341 345 331 337 344 340 346 349 350 4 9 16 26 23 7 357 352 347 344 347 2 28 25 7 356 351 346 341 341 344 345 344 343 339 331 324 313 294 286 285 280 275 270 263 258 254 246 237 234 232 232
239 248 252 252 249 243 237 234 235 236 237 235 228 221 222 228 230 232 237 244 246 243 240 238 236 235 236 236 235 237 248 263 262 263 325 337 323 333 336 331 341 342 337 358 9 21 19 1 352 351 347 343 341 343 351 10 22 11 356 348 345 341 338 340 344 344 347 348 335 326 321 304 290 285 281 277 271 265 260 257 253 246 240 234 227
260 266 266 258 254 251 246 241 244 247 246 246 240 231 229 235 240 245 251 254 253 249 244 240 238 237 237 235 236 238 239 252 261 256 307 327 323 334 328 320 338 338 336 358 13 24 2 345 343 342 336 335 338 343 347 353 8 11 359 347 341 337 334 334 337 339 347 354 343 332 328 315 299 287 282 280 274 268 264 259 256 250 242 239 237
232 240 248 255 258 259 253 250 255 256 249 248 246 239 235 236 240 247 254 254 251 248 245 242 240 239 236 234 236 235 233 248 257 252 290 311 315 323 311 304 335 331 329 360 16 11 351 341 341 340 333 334 339 347 352 352 357 0 355 348 342 336 331 330 331 333 342 350 341 336 334 327 316 298 283 279 276 274 270 262 257 253 249 248 245
203 216 227 239 246 251 248 246 252 252 245 244 245 243 239 235 237 244 249 250 249 244 240 240 241 237 232 230 232 231 230 240 244 246 274 291 306 317 301 293 323 309 301 352 356 347 346 341 343 347 345 346 349 354 355 352 351 352 350 348 346 342 336 331 328 326 332 340 338 335 335 334 328 312 291 280 277 278 275 265 257 254 251 248 244
198 207 209 207 212 219 220 226 238 241 236 234 234 235 234 232 237 243 244 246 246 241 238 238 238 233 229 229 230 228 229 235 238 243 258 273 302 313 290 281 307 295 288 325 323 331 342 339 340 346 348 347 348 348 348 345 344 347 350 349 346 343 338 333 328 324 325 331 333 331 330 334 334 322 302 287 283 284 281 270 261 255 251 247 244
210 212 218 217 217 219 214 215 229 236 230 225 225 229 233 235 239 241 241 243 243 240 239 237 233 229 226 227 227 225 228 236 237 240 250 266 297 305 278 271 300 296 294 315 306 317 337 338 336 342 343 338 335 336 335 333 334 339 345 347 345 340 335 328 322 320 319 323 328 327 325 330 334 326 311 295 286 285 278 269 262 257 254 251 248
226 247 271 258 252 255 239 225 231 239 236 230 231 236 241 243 243 242 244 247 245 243 241 234 230 228 225 225 224 222 227 236 236 236 245 261 286 298 274 271 294 292 288 307 293 302 338 338 326 330 337 333 328 326 325 323 327 333 338 342 342 338 333 325 316 311 312 316 320 322 323 327 329 326 316 302 292 286 275 265 261 258 256 255 252
210 257 320 335 288 285 285 269 256 253 247 240 241 248 252 251 246 244 248 251 251 247 239 233 229 225 222 223 223 221 227 236 234 233 239 245 266 313 299 284 293 287 274 295 286 297 334 337 326 315 314 323 325 322 319 320 324 330 333 336 337 334 330 325 317 307 305 308 312 316 318 323 326 322 315 307 299 290 277 267 263 261 259 258 255
193 208 229 239 239 251 283 292 288 284 266 251 251 259 264 262 257 254 254 256 259 252 238 230 228 222 221 226 223 220 232 241 234 231 233 235 257 315 300 285 292 280 264 302 309 313 323 328 332 320 303 311 320 314 314 318 322 326 329 334 336 333 329 325 319 309 302 300 304 310 316 320 320 313 308 304 296 291 285 274 265 262 261 259 255
197 207 236 241 233 220 143 138 117 8 307 260 260 274 285 283 281 281 274 268 269 257 236 226 225 222 224 227 222 224 242 247 234 228 231 241 262 279 263 268 295 273 246 256 291 310 314 319 331 327 315 315 315 310 311 313 318 322 326 334 337 335 333 330 324 315 303 297 300 308 316 320 317 309 303 296 289 290 290 281 271 266 259 252 246
203 210 231 232 243 290 74 103 101 76 94 232 255 292 323 333 333 330 311 284 266 247 229 222 221 221 225 226 224 232 250 248 232 229 235 249 262 256 243 249 283 259 243 249 265 278 290 300 314 319 319 318 313 312 312 311 315 319 324 333 337 336 337 337 332 322 308 302 305 312 318 319 317 311 303 292 285 292 295 283 272 267 259 247 238
214 224 233 229 238 262 136 199 338 30 31 346 317 312 327 346 346 345 336 291 245 226 219 216 215 218 223 227 229 239 250 244 233 234 241 253 258 244 234 240 265 251 250 259 263 265 278 287 295 304 312 315 313 315 317 312 311 315 322 332 336 338 340 339 335 329 321 316 316 318 320 321 319 312 301 290 283 286 293 286 268 257 253 241 233
199 215 225 223 219 207 171 132 49 46 37 19 5 353 348 350 347 351 350 291 221 209 208 208 210 217 225 232 239 248 254 245 233 236 245 253 249 233 225 233 246 242 249 258 256 260 274 284 294 302 309 315 313 315 317 311 307 313 323 331 335 338 341 341 337 336 336 335 329 325 326 327 322 313 301 294 290 285 287 290 279 257 243 229 222
184 194 199 195 194 191 145 97 81 54 31 22 14 4 1 0 356 360 6 298 214 208 205 207 213 225 233 238 247 252 248 235 228 236 245 244 232 220 216 220 221 230 252 265 268 272 278 282 290 297 306 312 310 311 314 309 306 313 321 329 334 336 339 340 338 338 341 342 337 329 327 329 326 318 305 299 298 292 282 283 287 262 239 225 211
186 189 187 176 187 184 152 122 103 42 11 4 359 356 358 1 1 3 13 288 218 212 207 212 226 236 239 244 250 242 225 218 224 232 232 223 209 202 204 212 224 248 277 284 285 287 289 290 289 290 295 301 302 307 310 305 307 315 319 327 335 337 338 337 335 336 337 336 334 325 321 324 325 319 312 309 307 293 277 269 259 244 236 216 193
191 186 178 178 188 183 166 157 161 200 339 337 338 346 353 2 5 360 7 241 218 215 217 229 239 241 243 248 245 230 218 223 234 232 221 209 200 200 207 220 238 277 307 304 297 298 302 302 298 292 291 295 303 308 308 304 310 316 317 325 334 338 337 334 332 335 336 335 329 318 316 319 320 318 319 320 313 289 276 271 249 230 229 218 202
182 172 175 184 188 187 181 182 199 219 241 281 294 305 319 329 336 335 343 151 196 210 224 240 242 241 246 248 241 228 225 239 245 235 223 213 208 212 223 236 256 304 324 312 300 298 301 302 299 294 292 295 303 306 304 304 310 312 313 323 332 335 334 331 330 332 336 330 311 305 311 315 315 318 324 322 307 279 266 268 248 220 227 230 219
176 175 183 186 184 184 189 198 212 221 224 241 253 257 271 285 292 291 284 250 218 228 249 261 262 262 260 252 244 239 245 257 249 229 219 217 220 233 247 254 270 295 306 307 301 295 296 301 300 295 295 301 301 300 299 301 306 309 311 320 328 330 329 328 330 329 323 307 294 301 315 315 309 312 320 312 266 234 223 244 256 246 242 231 209
184 186 185 184 185 190 198 208 219 225 232 244 247 245 252 264 271 272 272 270 262 261 270 270 269 272 267 254 250 251 256 260 246 227 222 228 239 254 262 263 273 280 278 289 297 292 292 302 303 294 293 299 298 292 290 294 300 304 308 316 324 327 323 325 332 326 301 294 297 307 318 317 308 306 313 303 237 221 218 233 246 245 254 210 176
197 196 195 194 199 207 213 221 226 227 234 241 244 244 246 251 256 259 261 263 260 257 264 269 266 267 264 259 260 261 257 252 242 232 234 242 249 258 263 260 266 269 270 283 296 291 285 290 295 295 294 296 294 286 282 288 295 298 302 312 322 323 316 321 331 321 292 291 298 305 318 323 316 301 302 301 243 216 213 219 216 204 204 193 162
208 206 204 203 209 218 223 226 226 229 238 243 242 242 242 244 249 250 249 250 250 251 256 258 255 256 260 261 264 261 254 252 247 241 242 245 248 258 265 259 259 267 276 289 296 292 283 283 289 295 298 295 289 280 278 283 287 290 297 310 319 318 308 315 327 318 289 283 292 306 326 329 321 301 288 292 260 220 211 213 204 186 182 176 160
215 215 213 210 213 219 224 225 226 232 242 247 246 245 243 244 248 250 248 246 247 251 256 254 248 248 254 258 261 257 251 251 251 246 243 244 249 260 264 258 262 276 291 297 293 286 286 292 298 301 300 293 281 274 279 283 281 286 297 308 314 310 301 308 323 317 282 271 287 311 329 328 320 303 277 277 259 225 213 213 206 190 184 179 173
218 221 219 215 214 216 220 222 225 235 246 252 254 254 249 247 250 250 248 249 252 256 258 256 250 247 248 252 256 254 250 251 253 251 246 246 252 259 259 258 267 280 292 299 293 286 289 297 300 298 299 293 279 273 279 279 277 286 298 305 308 305 296 303 322 317 280 267 284 311 329 331 324 306 282 276 256 228 216 214 214 208 197 183 176
213 215 216 215 214 215 218 223 230 240 248 252 257 261 259 257 257 252 249 254 260 261 260 256 249 245 245 248 250 249 250 253 256 255 250 249 253 258 261 268 276 284 292 296 294 291 292 296 298 295 294 291 282 276 275 272 274 289 300 304 305 300 292 299 321 314 273 262 280 306 326 334 332 318 297 285 262 231 216 213 220 219 201 177 172
200 205 210 213 214 215 220 228 236 243 250 256 261 267 267 265 262 260 263 268 267 264 262 257 249 245 245 245 246 247 249 252 253 251 249 250 252 253 262 275 282 286 291 293 291 291 292 296 300 299 294 290 283 274 267 264 274 291 300 302 302 297 286 291 315 305 273 272 288 304 317 325 330 326 308 294 277 238 218 214 218 209 184 166 167
201 207 211 212 213 214 220 226 233 240 250 257 262 268 271 269 268 276 286 285 275 268 264 259 252 247 244 243 244 246 247 246 246 247 248 249 248 248 260 280 285 281 284 286 287 291 293 297 301 302 300 296 283 267 256 256 272 287 291 288 288 291 286 283 291 290 288 294 298 301 307 311 317 321 304 292 292 248 218 207 200 187 168 160 164
207 213 211 205 203 204 209 216 227 242 253 258 267 278 283 279 281 294 304 298 285 274 265 260 255 249 245 243 243 244 245 242 240 242 244 245 245 248 260 277 278 272 274 278 283 290 294 298 300 302 304 298 275 252 243 250 266 275 278 279 285 296 304 305 301 296 296 296 291 291 296 297 301 305 288 280 293 246 210 195 179 170 162 158 163
217 216 200 192 192 194 202 219 238 250 257 264 274 285 289 290 297 308 311 306 296 279 266 261 258 251 247 244 242 242 241 238 235 236 238 242 246 249 255 265 268 266 269 273 280 290 296 296 292 290 298 296 266 238 232 246 262 266 272 283 291 307 326 327 317 306 300 294 286 285 287 284 282 284 271 265 253 185 184 171 158 158 160 161 165
215 197 185 187 193 200 211 230 247 254 262 272 276 275 280 290 298 305 308 309 301 284 270 265 261 255 249 244 241 239 237 235 233 235 239 245 250 250 253 260 261 262 267 271 279 289 293 283 269 276 291 288 242 222 227 242 254 248 244 263 291 311 326 326 324 320 308 296 285 276 269 256 259 263 246 208 161 157 159 156 154 159 167 175 179
196 184 183 190 198 206 218 232 245 261 279 284 279 276 281 289 294 296 302 308 305 290 277 270 266 260 252 245 241 238 236 233 232 233 237 244 247 247 250 254 254 255 262 268 273 277 270 248 247 268 275 249 216 213 221 230 233 225 216 225 283 310 319 318 326 335 323 309 305 287 269 264 240 183 137 131 150 158 158 157 158 164 176 185 192
190 186 190 196 201 208 218 231 247 275 294 286 276 281 290 295 297 297 295 298 302 299 289 280 273 266 257 250 245 242 238 235 232 232 234 240 244 245 247 251 253 256 262 265 263 255 248 246 249 252 241 218 210 213 220 224 222 216 210 222 260 293 312 308 316 341 344 355 32 353 307 298 188 151 125 131 164 175 176 177 180 186 189 189 191
192 193 196 199 203 208 217 232 255 279 280 266 267 284 297 298 299 300 296 295 301 303 299 292 282 271 263 259 254 248 243 239 236 235 236 240 245 247 249 253 258 260 262 265 260 253 252 257 258 254 242 226 219 224 230 230 220 212 216 233 248 270 299 297 286 333 30 46 34 4 356 4 5 22 65 109 150 173 184 192 202 208 197 187 189
198 199 200 201 202 207 218 239 260 262 253 254 269 283 290 291 292 296 297 298 301 304 302 297 288 276 269 266 262 256 250 243 239 237 238 240 243 246 247 252 257 259 259 261 259 254 254 259 262 263 261 250 245 249 248 235 221 217 224 237 245 253 275 284 265 241 234 264 292 308 329 344 342 345 360 52 128 144 156 167 180 188 183 180 185
202 198 198 199 201 208 225 246 255 251 246 251 263 273 280 284 289 294 294 293 295 297 297 295 291 283 277 271 267 263 257 248 241 239 240 241 242 244 246 249 253 256 257 256 254 251 253 259 265 269 269 262 259 262 252 234 225 224 227 234 242 247 255 272 269 252 245 251 268 286 300 311 312 307 300 279 225 173 160 160 167 175 176 175 175